ZIYUAN 3-02 (ZY 3-02)

Last updated on Mon Jun 22 2026 00:02:51 GMT+0000 (Coordinated Universal Time)

1 41556U 16033A 26172.53097848 .00003654 00000+0 16656-3 0 9990 2 41556 97.3832 248.2226 0012375 274.4666 85.5156 15.21213451558647
UTC large
Height (km)
Speed (km/s)
/
Latitude / Longitude
Inclination (degrees)
Orbital Period (minutes)
Azimuth
Elevation
Range (km)
Doppler Factor

Next 0 passes for location: London (51.5072 / 0.1276)

No passes found over London.
ZIYUAN 3-02 (ZY 3-02)